Date String (YYYY-MM-DD hh:mm:ss) UTC,Instrument flags,Ambient pressure (hPa),Sample flow (lpm),Bypass flow (lpm),Sample temperature (°C),Ambient temperature (°C),ASC tube jacket temperature (°C),LED temperature (°C),Box temperature (°C),Sample RH (%),Mass concentration (μg/m³),Mass concentration (μg/m³)
DateTimeUTC,F1_M11,P_M11,Q1_M11,Q2_M11,T1_M11,T2_M11,T3_M11,T4_M11,T5_M11,U1_M11,X0_M11,X2_M11
2021-08-13 22:00:00,,0834.3,4.98,0.00,29.5,28.1,00.0,38.3,31.2,33.3,0037.07,0011.34
2021-08-13 22:01:00,,0834.3,5.00,0.00,29.5,28.3,00.0,38.3,31.3,33.0,0036.87,0011.30
2021-08-13 22:02:00,,0834.3,5.00,0.00,29.6,28.5,00.0,38.4,31.4,33.1,0035.25,0011.40
2021-08-13 22:03:00,,0834.3,5.00,0.00,29.6,28.2,00.0,38.4,31.3,33.2,0035.29,0011.40
2021-08-13 22:04:00,,0834.3,5.02,0.00,29.5,26.6,00.0,38.4,30.8,32.9,0034.59,0011.42
2021-08-13 22:05:00,,0834.3,4.99,0.00,29.4,25.9,00.0,38.4,30.6,33.9,0034.57,0011.46
2021-08-13 22:06:00,,0834.3,5.01,0.00,29.3,26.0,00.0,38.4,30.7,33.6,0035.62,0011.47
2021-08-13 22:07:00,,0834.3,5.01,0.00,29.3,26.5,00.0,38.3,30.7,34.0,0034.36,0011.46
2021-08-13 22:08:00,,0834.3,4.99,0.00,29.3,26.9,00.0,38.3,30.9,33.8,0035.29,0011.40
2021-08-13 22:09:00,,0834.3,5.00,0.00,29.3,27.3,00.0,38.3,31.0,34.1,0032.88,0011.36
2021-08-13 22:10:00,,0834.3,5.00,0.00,29.3,27.7,00.0,38.3,31.1,34.4,0033.09,0011.36
2021-08-13 22:11:00,,0834.3,5.00,0.00,29.4,28.0,00.0,38.3,31.2,34.2,0031.90,0011.42
2021-08-13 22:12:00,,0834.3,4.99,0.00,29.4,28.2,00.0,38.3,31.3,33.9,0030.94,0011.45
2021-08-13 22:13:00,,0834.2,5.01,0.00,29.5,28.4,00.0,38.4,31.4,33.5,0031.47,0011.43
2021-08-13 22:14:00,,0834.1,4.99,0.00,29.5,28.3,00.0,38.4,31.3,33.2,0032.87,0011.43
2021-08-13 22:15:00,,0834.1,5.00,0.00,29.5,26.9,00.0,38.4,30.8,33.6,0033.25,0011.49
2021-08-13 22:16:00,,0834.1,5.00,0.00,29.3,25.9,00.0,38.4,30.6,33.8,0033.71,0011.47
2021-08-13 22:17:00,,0834.1,5.01,0.00,29.2,25.9,00.0,38.4,30.6,33.6,0033.63,0011.45
2021-08-13 22:18:00,,0834.0,4.99,0.00,29.2,26.3,00.0,38.3,30.7,34.2,0035.73,0011.42
2021-08-13 22:19:00,,0834.0,5.01,0.00,29.2,26.8,00.0,38.3,30.8,33.9,0035.29,0011.46
2021-08-13 22:20:00,,0834.0,4.99,0.00,29.2,27.2,00.0,38.3,31.0,34.0,0036.55,0011.52
2021-08-13 22:21:00,,0834.0,5.00,0.00,29.3,27.6,00.0,38.3,31.1,33.7,0037.76,0011.58
2021-08-13 22:22:00,,0834.1,5.01,0.00,29.3,27.9,00.0,38.3,31.2,33.8,0038.57,0011.60
2021-08-13 22:23:00,,0834.0,4.98,0.00,29.4,28.2,00.0,38.3,31.2,34.3,0039.69,0011.60
2021-08-13 22:24:00,,0834.0,5.02,0.00,29.4,28.4,00.0,38.3,31.3,34.0,0039.78,0011.68
2021-08-13 22:25:00,,0834.0,4.99,0.00,29.5,28.5,00.0,38.3,31.3,34.1,0038.25,0011.72
2021-08-13 22:26:00,,0834.0,5.00,0.00,29.4,27.2,00.0,38.3,30.9,33.8,0039.40,0011.73
2021-08-13 22:27:00,,0834.0,5.00,0.00,29.3,25.9,00.0,38.3,30.6,34.2,0039.98,0011.82
2021-08-13 22:28:00,,0834.0,5.00,0.00,29.2,25.9,00.0,38.3,30.6,33.9,0039.47,0011.89
2021-08-13 22:29:00,,0834.0,5.01,0.00,29.1,26.3,00.0,38.3,30.7,33.9,0038.32,0012.05
2021-08-13 22:30:00,,0834.1,4.98,0.00,29.1,26.7,00.0,38.2,30.8,33.9,0038.45,0012.19
2021-08-13 22:31:00,,0834.1,5.00,0.00,29.2,27.2,00.0,38.2,30.9,33.8,0037.88,0012.18
2021-08-13 22:32:00,,0834.1,5.02,0.00,29.2,27.5,00.0,38.2,31.0,33.8,0036.20,0012.17
2021-08-13 22:33:00,,0834.1,4.98,0.00,29.3,27.8,00.0,38.2,31.1,33.6,0035.75,0012.15
2021-08-13 22:34:00,,0834.1,5.02,0.00,29.3,28.1,00.0,38.3,31.2,34.0,0035.27,0012.18
2021-08-13 22:35:00,,0834.1,5.01,0.00,29.4,28.4,00.0,38.3,31.3,34.5,0034.62,0012.20
2021-08-13 22:36:00,,0834.1,5.00,0.00,29.4,28.5,00.0,38.3,31.4,34.6,0035.77,0012.26
2021-08-13 22:37:00,,0834.1,4.99,0.00,29.4,27.6,00.0,38.3,31.1,34.1,0035.39,0012.29
2021-08-13 22:38:00,,0834.0,5.00,0.00,29.3,26.2,00.0,38.3,30.7,33.8,0033.41,0012.27
2021-08-13 22:39:00,,0834.1,5.00,0.00,29.2,25.9,00.0,38.3,30.6,34.2,0033.28,0012.27
2021-08-13 22:40:00,,0834.1,4.99,0.00,29.1,26.2,00.0,38.3,30.6,34.4,0032.93,0012.19
2021-08-13 22:41:00,,0834.0,4.99,0.00,29.1,26.7,00.0,38.2,30.8,34.6,0033.10,0012.10
2021-08-13 22:42:00,,0834.0,4.99,0.00,29.1,27.1,00.0,38.2,30.9,34.9,0033.49,0012.17
2021-08-13 22:43:00,,0834.0,5.01,0.00,29.2,27.5,00.0,38.2,31.1,35.7,0034.59,0012.20
2021-08-13 22:44:00,,0834.0,5.00,0.00,29.6,27.8,00.0,38.2,31.3,34.6,0034.64,0012.19
2021-08-13 22:45:00,,0834.1,5.01,0.00,29.9,28.1,00.0,38.3,31.5,33.2,0033.53,0012.13
2021-08-13 22:46:00,,0834.1,4.98,0.00,30.1,28.3,00.0,38.3,31.5,32.8,0034.83,0011.99
2021-08-13 22:47:00,,0834.1,5.01,0.00,30.1,27.6,00.0,38.4,31.3,32.3,0034.67,0011.83
2021-08-13 22:48:00,,0834.0,5.00,0.00,30.1,26.2,00.0,38.4,30.8,32.2,0033.43,0011.79
2021-08-13 22:49:00,,0834.0,5.00,0.00,30.0,25.8,00.0,38.4,30.7,32.7,0034.65,0011.83
2021-08-13 22:50:00,,0834.0,5.00,0.00,29.9,26.1,00.0,38.5,30.8,32.9,0034.03,0011.77
2021-08-13 22:51:00,,0834.0,5.01,0.00,29.9,26.6,00.0,38.5,30.9,32.8,0034.13,0011.73
2021-08-13 22:52:00,,0834.0,4.99,0.00,29.9,27.0,00.0,38.5,31.0,33.2,0034.46,0011.74
2021-08-13 22:53:00,,0834.0,5.01,0.00,29.9,27.4,00.0,38.5,31.1,33.1,0033.90,0011.59
2021-08-13 22:54:00,,0834.0,4.99,0.00,29.9,27.7,00.0,38.5,31.2,33.3,0033.61,0011.63
2021-08-13 22:55:00,,0834.0,5.01,0.00,29.9,28.0,00.0,38.6,31.3,33.6,0033.54,0011.68
2021-08-13 22:56:00,,0834.0,4.99,0.00,30.0,28.3,00.0,38.6,31.4,33.1,0035.19,0011.74
2021-08-13 22:57:00,,0834.0,5.01,0.00,30.0,28.4,00.0,38.6,31.4,33.1,0034.52,0011.88
2021-08-13 22:58:00,,0834.0,5.00,0.00,30.0,27.2,00.0,38.6,31.1,32.8,0034.83,0011.98
2021-08-13 22:59:00,,0834.0,4.98,0.00,29.8,26.0,00.0,38.6,30.8,32.1,0035.66,0011.97
